Weather History for Annapolis Naval Academy, MD

Change the Weather History Date:

Monday, November 19, 2012

  Actual Average (KBWI) Record (KBWI)
Temperature  
Mean Temperature 50 °F 45 °F  
Max Temperature 54 °F 55 °F 77 °F (1928)
Min Temperature 46 °F 36 °F 20 °F (1936)
Degree Days  
Heating Degree Days 15 20  
Month to date heating degree days 318  
Since 1 July heating degree days 665  
Cooling Degree Days 0 0  
Month to date cooling degree days 0  
Year to date cooling degree days 1163  
Moisture  
Dew Point 40 °F    
Average Humidity 69    
Maximum Humidity 74    
Minimum Humidity 59    
Precipitation  
Precipitation 0.00 in 0.11 in 1.63 in (1932)
Month to date precipitation 2.06  
Year to date precipitation 37.27  
Snow  
Snow 0.00 in 0.00 in 2.00 in (1955)
Month to date snowfall 0.1  
Since 1 July snowfall 0.1  
Snow Depth -    
Sea Level Pressure  
Sea Level Pressure 30.36 in    
Wind  
Wind Speed 8 mph (North)    
Max Wind Speed 12 mph    
Max Gust Speed -    
Visibility 10 miles    
Events      
T = Trace of Precipitation, MM = Missing Value Source: NWS Daily Summary

Daily Weather History Graph

Daily Weather History Graph

Search for Another Location

Airport:

Trip Planner

Search our weather history database for the weather conditions in past years. The results will help you decide how hot, cold, wet, or windy it might be!

Date:

Astronomy

Nov. 19, 2012 Rise Set
Actual Time 6:53 AM EST 4:48 PM EST
Civil Twilight 6:24 AM EST 5:17 PM EST
Nautical Twilight 5:52 AM EST 5:50 PM EST
Astronomical Twilight 5:20 AM EST 6:21 PM EST
Moon 11:56 AM EST (11/19) 11:12 PM EST (11/19)
Length of Visible Light 10h 52m
Length of Day
9h 55m
Waxing Crescent, 40% of the Moon is Illuminated
Nov 19
Waxing Crescent
Nov 20
First Quarter
Nov 28
Full
Dec 6
Last Quarter
Dec 13
New

Hourly Weather History & Observations

Time (EST) Temp. Dew Point Humidity Pressure Visibility Wind Dir Wind Speed Gust Speed Precip Events Conditions
12:54 AM 48.9 °F 39.9 °F 71% 30.48 in 10.0 mi North 9.2 mph - N/A   Overcast
1:54 AM 48.0 °F 39.0 °F 71% 30.48 in 10.0 mi North 8.1 mph - N/A   Clear
2:54 AM 48.0 °F 39.9 °F 74% 30.48 in 10.0 mi North 6.9 mph - N/A   Overcast
3:54 AM 48.0 °F 39.0 °F 71% 30.45 in 10.0 mi North 8.1 mph - N/A   Overcast
4:54 AM 48.0 °F 39.9 °F 74% 30.45 in 10.0 mi North 10.4 mph - N/A   Overcast
5:54 AM 48.0 °F 39.9 °F 74% 30.45 in 10.0 mi NNE 11.5 mph - N/A   Overcast
6:54 AM 46.9 °F 39.0 °F 74% 30.45 in 10.0 mi NNE 9.2 mph - N/A   Overcast
7:54 AM 46.9 °F 39.0 °F 74% 30.45 in 10.0 mi NNE 9.2 mph - N/A   Overcast
8:54 AM 46.9 °F 39.0 °F 74% 30.45 in 10.0 mi NNE 8.1 mph - N/A   Overcast
9:54 AM 46.9 °F 39.0 °F 74% 30.44 in 10.0 mi North 10.4 mph - N/A   Overcast
10:54 AM 46.9 °F 39.0 °F 74% 30.43 in 10.0 mi North 9.2 mph - N/A   Overcast
11:09 AM 46.9 °F 39.0 °F 74% 30.41 in 10.0 mi NNE 11.5 mph - N/A   Overcast
11:54 AM 48.9 °F 39.9 °F 71% 30.39 in 10.0 mi North 9.2 mph - N/A   Overcast
12:54 PM 51.1 °F 39.9 °F 66% 30.35 in 10.0 mi North 11.5 mph - N/A   Overcast
1:54 PM 54.0 °F 39.9 °F 59% 30.32 in 10.0 mi North 10.4 mph - N/A   Clear
2:54 PM 54.0 °F 39.9 °F 59% 30.32 in 10.0 mi NNE 6.9 mph - N/A   Scattered Clouds
3:54 PM 53.1 °F 39.9 °F 61% 30.31 in 10.0 mi North 5.8 mph - N/A   Overcast
4:54 PM 52.0 °F 42.1 °F 69% 30.31 in 10.0 mi NE 4.6 mph - N/A   Overcast
5:54 PM 53.1 °F 42.1 °F 66% 30.30 in 10.0 mi North 5.8 mph - N/A   Overcast
6:54 PM 53.1 °F 41.0 °F 64% 30.29 in 10.0 mi North 8.1 mph - N/A   Overcast
7:54 PM 52.0 °F 41.0 °F 66% 30.28 in 10.0 mi NNW 6.9 mph - N/A   Mostly Cloudy
8:54 PM 52.0 °F 41.0 °F 66% 30.27 in 10.0 mi NNW 5.8 mph - N/A   Mostly Cloudy
9:54 PM 51.1 °F 41.0 °F 68% 30.26 in 10.0 mi North 6.9 mph - N/A   Overcast
10:06 PM 51.1 °F 41.0 °F 68% 30.25 in 10.0 mi North 5.8 mph - N/A   Overcast
10:37 PM 51.1 °F 39.9 °F 66% 30.24 in 10.0 mi North 4.6 mph - N/A   Overcast
10:46 PM 51.1 °F 41.0 °F 68% 30.23 in 10.0 mi North 4.6 mph - N/A   Overcast
10:54 PM 51.1 °F 39.9 °F 66% 30.24 in 10.0 mi North 4.6 mph - N/A   Overcast
11:54 PM 51.1 °F 41.0 °F 68% 30.23 in 10.0 mi North 5.8 mph - N/A   Overcast